This demonstration page uses our WeatherBlox Daily Observations layout. Learn more.

Left ArrowRight Arrow

39.95238, -75.16362

Hourly Observations for May 4, 2018

Temp ( °F °C ) Dew Point ( °F °C ) Humidity (%) Winds ( mph kmh ) Pressure ( in mb ) Visibility ( mi km ) Precip ( " mm )
12:54 am 00:54 Partly Cloudy 74 23.3 59 15 60 60 SSW 8 13 29.97 1015 10 16 0.00 0.00
1:54 am 01:54 Mostly Cloudy 72 22.2 59 15 64 64 SSW 8 13 29.96 1014 10 16 0.00 0.00
2:54 am 02:54 Mostly Cloudy 71 21.7 59 15 66 66 SW 3 6 29.96 1015 10 16 0.00 0.00
3:54 am 03:54 Mostly Cloudy 70 21.1 59 15 68 68 Calm 29.97 1015 10 16 0.00 0.00
4:54 am 04:54 Mostly Cloudy 67 19.4 59 15 76 76 S 5 7 29.95 1014 10 16 0.00 0.00
5:54 am 05:54 Mostly Cloudy 68 20 59 15 73 73 SW 3 6 29.96 1014 10 16 0.00 0.00
6:54 am 06:54 Mostly Cloudy 69 20.6 60 15.6 73 73 WSW 7 11 29.98 1015 10 16 0.00 0.00
7:54 am 07:54 Cloudy 68 20 60 15.6 76 76 Calm 29.98 1015 10 16 0.00 0.00
8:54 am 08:54 Cloudy 71 21.7 61 16.1 71 71 SW 7 11 29.98 1015 10 16 0.00 0.00
9:54 am 09:54 Cloudy 72 22.2 61 16.1 68 68 SW 7 11 29.98 1015 10 16 0.00 0.00
10:54 am 10:54 Cloudy 74 23.3 61 16.1 64 64 SW 7 11 29.97 1015 10 16 0.00 0.00
11:54 am 11:54 Mostly Cloudy 77 25 62 16.7 60 60 SW 8 13 29.96 1014 10 16 0.00 0.00
12:54 pm 12:54 Mostly Cloudy 80 26.7 62 16.7 54 54 SSW 10 17 29.93 1014 10 16 0.00 0.00
1:54 pm 13:54 Mostly Cloudy 84 28.9 62 16.7 48 48 S 12 19 29.89 1012 10 16 0.00 0.00
2:54 pm 14:54 Mostly Cloudy 87 30.6 61 16.1 42 42 SSW 14 22 29.87 1012 10 16 0.00 0.00
3:54 pm 15:54 Mostly Cloudy 87 30.6 62 16.7 43 43 SSW 15 24 29.84 1011 10 16 0.00 0.00
4:54 pm 16:54 Mostly Cloudy 87 30.6 60 15.6 40 40 SW 13 20 29.83 1010 10 16 0.00 0.00
5:54 pm 17:54 Mostly Cloudy 85 29.4 61 16.1 45 45 SSW 12 19 29.82 1010 10 16 0.00 0.00
6:54 pm 18:54 Mostly Cloudy 84 28.9 61 16.1 46 46 SW 13 20 29.81 1010 10 16 0.00 0.00
7:54 pm 19:54 Mostly Cloudy 82 27.8 61 16.1 49 49 SSW 13 20 29.82 1010 10 16 0.00 0.00
8:54 pm 20:54 Cloudy 81 27.2 62 16.7 53 53 WSW 14 22 29.85 1011 10 16 0.00 0.00
9:54 pm 21:54 Cloudy 81 27.2 59 15 47 47 SW 14 22 29.85 1011 10 16 0.00 0.00
10:54 pm 22:54 Cloudy 76 24.4 59 15 56 56 WSW 12 19 29.87 1011 10 16 0.00 0.00
11:41 pm 23:41 Cloudy 78 25.6 57 13.9 48 48 NW 14 22 29.91 1013 10 16 0.00 0.00
11:54 pm 23:54 Cloudy 77 25 54 12.2 45 45 NW 18 30 29.91 1013 10 16 0.00 0.00

Powered by AerisWeather